Rochester, Indiana, United States (46975)
Lat: 41.06N, Lon: 86.22W
Wx Zone: INZ015
Local Info
Past Weather Observations for Today

NOTE: This archive is for the closest National Weather Service station to Rochester. Information may differ from the station used for current weather conditions.

Click here for Long-term Archive

Time Weather Temperature Dewpoint Humidity Pressure Winds Precip Visibility
18:55
Clear
77°F / 25°C 59°F / 15°C 54% 30.15 in
(1021 mb)
SE 3.5 mph
(SE 6 kph)
- 10SM
18:35
Clear
79°F / 26°C 57°F / 14°C 48% 30.15 in
(1021 mb)
SE 4.6 mph
(SE 7 kph)
- 10SM
18:15
Partly Cloudy
79°F / 26°C 57°F / 14°C 48% 30.15 in
(1021 mb)
SE 5.8 mph
(SE 9 kph)
- 10SM
17:55
Clear
79°F / 26°C 59°F / 15°C 51% 30.15 in
(1021 mb)
Calm - 10SM
17:35
Partly Cloudy
81°F / 27°C 59°F / 15°C 48% 30.15 in
(1021 mb)
SE 8.1 mph
(SE 13 kph)
- 10SM
17:15
Partly Cloudy
79°F / 26°C 57°F / 14°C 48% 30.15 in
(1021 mb)
SE 6.9 mph
(SE 11 kph)
- 10SM
16:55
Clear
79°F / 26°C 59°F / 15°C 51% 30.15 in
(1021 mb)
SE 9.2 mph
(SE 15 kph)
- 10SM
16:35
Clear
79°F / 26°C 59°F / 15°C 51% 30.15 in
(1021 mb)
ESE 10.4 mph
(ESE 17 kph)
- 10SM
16:15
Clear
79°F / 26°C 57°F / 14°C 48% 30.18 in
(1022 mb)
E 9.2 mph
(E 15 kph)
- 10SM
15:55
Clear
79°F / 26°C 55°F / 13°C 45% 30.18 in
(1022 mb)
SE 9.2 mph
(SE 15 kph)
- 10SM
15:35
Clear
79°F / 26°C 55°F / 13°C 45% 30.18 in
(1022 mb)
SSE 8.1 mph
(SSE 13 kph)
- 10SM
15:15
Clear
79°F / 26°C 59°F / 15°C 51% 30.18 in
(1022 mb)
SE 10.4 mph
(SE 17 kph)
- 10SM
14:55
Clear
79°F / 26°C 59°F / 15°C 51% 30.18 in
(1022 mb)
ESE 10.4 mph
(ESE 17 kph)
- 10SM
14:35
Partly Cloudy
79°F / 26°C 59°F / 15°C 51% 30.18 in
(1022 mb)
SE 5.8 mph
(SE 9 kph)
- 10SM
14:15
Clear
79°F / 26°C 59°F / 15°C 51% 30.21 in
(1023 mb)
SE 9.2 mph
(SE 15 kph)
- 10SM
13:55
Clear
79°F / 26°C 59°F / 15°C 51% 30.21 in
(1023 mb)
SE 6.9 mph
(SE 11 kph)
- 10SM
13:35
Clear
77°F / 25°C 59°F / 15°C 54% 30.21 in
(1023 mb)
SE 10.4 mph
(SE 17 kph)
- 10SM
13:15
Clear
77°F / 25°C 59°F / 15°C 54% 30.21 in
(1023 mb)
SE 9.2 mph
(SE 15 kph)
- 10SM
12:55
Clear
77°F / 25°C 59°F / 15°C 54% 30.21 in
(1023 mb)
ESE 12.7 mph
(ESE 20 kph)
- 10SM
12:35
Clear
77°F / 25°C 59°F / 15°C 54% 30.24 in
(1024 mb)
SE 10.4 mph
(SE 17 kph)
- 10SM
12:15
Clear
75°F / 24°C 59°F / 15°C 57% 30.24 in
(1024 mb)
SE 8.1 mph
(SE 13 kph)
- 10SM
11:55
Clear
73°F / 23°C 59°F / 15°C 61% 30.24 in
(1024 mb)
ESE 8.1 mph
(ESE 13 kph)
- 10SM
11:35
Clear
73°F / 23°C 59°F / 15°C 61% 30.24 in
(1024 mb)
E 9.2 mph
(E 15 kph)
- 10SM
11:15
Clear
72°F / 22°C 59°F / 15°C 65% 30.24 in
(1024 mb)
SE 3.5 mph
(SE 6 kph)
- 10SM
10:55
Clear
72°F / 22°C 59°F / 15°C 65% 30.24 in
(1024 mb)
ENE 5.8 mph
(ENE 9 kph)
- 10SM
10:35
Clear
72°F / 22°C 59°F / 15°C 65% 30.24 in
(1024 mb)
SE 4.6 mph
(SE 7 kph)
- 10SM
10:15
Clear
72°F / 22°C 59°F / 15°C 65% 30.24 in
(1024 mb)
ESE 6.9 mph
(ESE 11 kph)
- 10SM
09:55
Clear
70°F / 21°C 57°F / 14°C 64% 30.24 in
(1024 mb)
E 5.8 mph
(E 9 kph)
- 10SM
09:35
Clear
68°F / 20°C 57°F / 14°C 69% 30.24 in
(1024 mb)
SE 5.8 mph
(SE 9 kph)
- 10SM
09:15
Clear
68°F / 20°C 57°F / 14°C 69% 30.24 in
(1024 mb)
ESE 6.9 mph
(ESE 11 kph)
- 10SM
08:55
Clear
66°F / 19°C 59°F / 15°C 78% 30.24 in
(1024 mb)
SE 5.8 mph
(SE 9 kph)
- 10SM
08:35
Clear
64°F / 18°C 59°F / 15°C 83% 30.24 in
(1024 mb)
SE 5.8 mph
(SE 9 kph)
- 10SM
08:15
Clear
64°F / 18°C 59°F / 15°C 83% 30.24 in
(1024 mb)
SE 4.6 mph
(SE 7 kph)
- 10SM
07:55
Clear
63°F / 17°C 59°F / 15°C 88% 30.24 in
(1024 mb)
Calm - 10SM
07:35
Clear
61°F / 16°C 59°F / 15°C 94% 30.24 in
(1024 mb)
SE 3.5 mph
(SE 6 kph)
- 10SM
07:15
Clear
Fog And Mist
59°F / 15°C 59°F / 15°C 100% 30.21 in
(1023 mb)
SE 3.5 mph
(SE 6 kph)
- 5SM
06:55
Clear
Fog And Mist
55°F / 13°C 55°F / 13°C 100% 30.21 in
(1023 mb)
Calm - 3SM
06:35
Clear
Fog And Mist
54°F / 12°C 54°F / 12°C 100% 30.21 in
(1023 mb)
Calm - 2 1/2SM
06:15
Clear
Fog And Mist
52°F / 11°C 52°F / 11°C 100% 30.21 in
(1023 mb)
Calm - 2 1/2SM
05:55
Partly Cloudy
Fog And Mist
50°F / 10°C 50°F / 10°C 100% 30.21 in
(1023 mb)
Calm - 1 1/2SM
05:35
Mostly Cloudy
Fog And Mist
50°F / 10°C 50°F / 10°C 100% 30.21 in
(1023 mb)
Calm - 3/4SM
05:15
Overcast
Fog
50°F / 10°C 50°F / 10°C 100% 30.21 in
(1023 mb)
Calm - 1/4SM
04:55
Partly Cloudy
Fog And Mist
50°F / 10°C 50°F / 10°C 100% 30.21 in
(1023 mb)
Calm - 2SM
04:35
Mostly Cloudy
Fog
50°F / 10°C 50°F / 10°C 100% 30.18 in
(1022 mb)
Calm - 1/2SM
04:15
Mostly Cloudy
Fog And Mist
50°F / 10°C 50°F / 10°C 100% 30.21 in
(1023 mb)
Calm - 3/4SM
03:55
Mostly Cloudy
Fog
52°F / 11°C 52°F / 11°C 100% 30.18 in
(1022 mb)
Calm - 1/2SM
03:35
Mostly Cloudy
Fog And Mist
52°F / 11°C 52°F / 11°C 100% 30.21 in
(1023 mb)
Calm - 3/4SM
03:15
Obscured
Fog And Mist
52°F / 11°C 52°F / 11°C 100% 30.21 in
(1023 mb)
Calm - 1 1/4SM
02:55
Clear
Fog And Mist
54°F / 12°C 54°F / 12°C 100% 30.18 in
(1022 mb)
Calm - 3SM
02:35
Obscured
Fog And Mist
52°F / 11°C 52°F / 11°C 100% 30.18 in
(1022 mb)
Calm - 1 3/4SM
02:15
Obscured
Fog
54°F / 12°C 54°F / 12°C 100% 30.18 in
(1022 mb)
Calm - 1/2SM
01:55
Clear
Fog And Mist
54°F / 12°C 52°F / 11°C 94% 30.18 in
(1022 mb)
Calm - 4SM
01:35
Clear
54°F / 12°C 54°F / 12°C 100% 30.15 in
(1021 mb)
Calm - 7SM
01:15
Clear
54°F / 12°C 54°F / 12°C 100% 30.15 in
(1021 mb)
Calm - 10SM
00:55
Clear
55°F / 13°C 54°F / 12°C 94% 30.15 in
(1021 mb)
NW 3.5 mph
(NW 6 kph)
- 10SM
00:35
Clear
57°F / 14°C 55°F / 13°C 94% 30.15 in
(1021 mb)
Calm - 10SM
00:15
Clear
55°F / 13°C 55°F / 13°C 100% 30.15 in
(1021 mb)
Calm - 10SM
Time Weather Temperature Dewpoint Humidity Pressure Winds Precip Visibility


Weather for websites

WeatherForYou.com, LLC is not responsible for any damages or problems caused by this service. Current weather conditions are obtained from the closest station including government and personal stations which may have varying degrees of accuracy. Weather forecasts are derived from the NOAA NDFD. Like all things, this site belongs to Jesus Christ... He just trusts us to maintain it. If you have any questions or comments email webmaster@weatherforyou.com

Copyright © 2015, WeatherForYou.com LLC. All rights reserved.